Weather in Zalesye

Russia / Kaliningrad Oblast     54°50′37″N   21°31′03″E
temp.,
°C
wind,
m/s
gust,
m/s
humid.,
%
clouds,
%
prec.,
mm/h
press.,
hPa
HPBL,
m
18 april, sun
sun1823:00+8ne23898 0.0 102154
02:00+7ene2493100 0.0 102166
05:00+6ne259587 0.0 102192
08:00+10ene378396 0.0 1021302
11:00+15e356531 0.0 10211064
14:00+17ene4659100 0.1 10201529
17:00+16ene366694 1.3 1020634
20:00+12ene378666 2.3 1021134
19 april, mon
mon1923:00+9ene39885 0.0 1022186
02:00+7e36885 0.0 102298
05:00+6ene36871 0.0 1022102
08:00+9ene36765 0.0 1022246
11:00+14e35545 0.0 10221066
14:00+15e4448100 0.0 10211916
17:00+13ene365773 0.1 1021971
20:00+10ene397473 0.1 1021276
20 april, tue
tue2023:00+9e248261 0.1 102181
02:00+6ene118854 0.1 102011
05:00+5ne239359 0.0 101947
08:00+9ene347774 0.0 1019302
11:00+12ene346296 0.5 10181032
14:00+12ne3356100 0.9 10161307
17:00+10nnw3574100 0.6 1015311
20:00+7nw228470 0.8 101432
21 april, wed
wed2123:00+6nw1184100 0.0 101315
02:00+5wnw2391100 0.0 101254
05:00+4wnw379216 0.0 1011138
08:00+8wnw47735 0.0 1011397
11:00+12wnw45503 0.0 10101264
14:00+13nw464410 0.0 10101528
17:00+12nw35545 0.0 10101054
20:00+7ne11775 0.0 101010
22 april, thu
thu2223:00+6sse358290 0.0 100986
02:00+6wnw1290100 0.4 1009102
05:00+5w3694100 0.6 1010713
08:00+5sw358487 0.8 1012601
11:00+9sw355586 0.1 10131826
14:00+9sw454790 0.3 10131702
17:00+8wnw456714 1.0 10151008
20:00+3n24955 1.3 101672